Location: Banska Bystrica
(0.0000°N, 19.1500°E)
Time: 04:53:24
(UTC+02:00)

Meteor 1-11 Rocket - Pass Details

Date: 19 February 2019
Orbit: 831 x 916 km, 81.2° (Epoch: 15 October)

Event Time Altitude Azimuth Distance (km) Brightness Sun altitude
Rises 19:39:13 0° 180° (S) 3,437 7.0 -25.0°
Reaches altitude 10° 19:41:41 10° 177° (S) 2,486 6.2 -25.6°
Enters shadow 19:46:11 54° 149° (SSE) 1,015 3.9 -26.7°
